Location: D�derode
(51.8092°N, 10.1065°E)
Time: 05:56:12
(UTC+00:00)

Okean-O - Pass Details

Date: 01 December 2020
Orbit: 639 x 640 km, 98.2° (Epoch: 23 January)

Event Time Altitude Azimuth Distance (km) Brightness Sun altitude
Rises 16:23:09 0° 122° (ESE) 2,940 5.7 -10.4°
Reaches altitude 10° 16:25:47 10° 106° (ESE) 2,036 4.7 -10.8°
Maximum altitude 16:29:02 20° 58° (ENE) 1,473 3.9 -11.2°
Drops below altitude 10° 16:32:17 10° 11° (NNE) 2,047 4.9 -11.7°
Sets 16:34:57 0° 356° (N) 2,961 5.9 -12.1°
